Location: Dumpton Point
(51.3500°N, 1.4433°E)
Time: 23:27:27
(UTC+00:00)

Vanguard 2 Rocket - Pass Details

Date: 02 October 2022
Orbit: 555 x 3321 km, 32.9° (Epoch: 09 December)

Event Time Altitude Azimuth Distance (km) Brightness Sun altitude
Rises 23:42:32 0° 237° (WSW) 6,254 - -42.5°
Reaches altitude 10° 23:48:16 10° 226° (SW) 4,730 - -42.5°
Maximum altitude 23:56:58 23° 181° (S) 2,905 - -42.4°
Drops below altitude 10° 00:02:58 10° 132° (SE) 3,123 - -42.3°
Sets 00:05:50 0° 117° (ESE) 3,752 - -42.3°
